AirNav   ATP
 
 370 users online  

MN75 Krezowski Seaplane Base
McGregor, Minnesota, USA


FAA INFORMATION EFFECTIVE 09 NOVEMBER 2017

Location

FAA Identifier: MN75
Lat/Long: 46-45-29.4100N / 093-16-56.4100W
46-45.490167N / 093-16.940167W
46.7581694 / -93.2823361
(estimated)
Elevation: 1214 ft. / 370 m (estimated)
Variation: 02E (2000)
From city: 8 miles N of MCGREGOR, MN
Time zone: UTC -6 (UTC -5 during Daylight Saving Time)
Zip code: 55760

Seaplane Base Operations

Seaplane Base use: Private use. Permission required prior to landing
Activation date: 10/2002
Control tower: no
ARTCC: MINNEAPOLIS CENTER
FSS: PRINCETON FLIGHT SERVICE STATION
Attendance: UNATNDD
Segmented circle: no

Seaplane Base Communications

WX AWOS-3 at HZX (8 nm S): 119.575 (218-768-2593)

Nearby radio navigation aids

VOR radial/distance  VOR name  Freq  Var
GPZr155/25.7GRAND RAPIDS VOR/DME111.4006E
BRDr048/39.3BRAINERD VORTAC116.9003E

 
NDB name  Hdg/Dist  Freq  Var  ID
AITKIN052/20.539700EAIT .- .. -
MOOSE LAKE314/28.436202EMZH -- --.. ....
CLOQUET278/32.333501WCOQ -.-. --- --.-

Seaplane Base Services

Runway Information

Runway 5W/23W

Dimensions: 10000 x 500 ft. / 3048 x 152 m
Surface: water
RUNWAY 5W  RUNWAY 23W
Traffic pattern: leftleft

Runway 14W/32W

Dimensions: 10000 x 500 ft. / 3048 x 152 m
Surface: water
RUNWAY 14W  RUNWAY 32W
Traffic pattern: leftleft

Seaplane Base Ownership and Management from official FAA records

Ownership: Privately-owned
Owner: MARK KREZOWSKI
19858 508TH LANE
MCGREGOR, MN 55760
Phone 218-426-3280
Manager: MARK KREZOWSKI
19858 508TH LANE
MCGREGOR, MN 55760
Phone 218-426-3280

Seaplane Base Operational Statistics

Aircraft based on the field: 5
Single engine airplanes: 3
Ultralights: 2
    

Additional Remarks

150 FT LOOKOUT FIRE TOWER 1 NM SOUTH OF SEAPLANE BASE.
400 FT CELL TOWER (1700 FT MSL) 2NM SOUTH.

Instrument Procedures

There are no published instrument procedures at MN75.

Some nearby airports with instrument procedures:

KHZX - Isedor Iverson Airport (8 nm S)
KAIT - Aitkin Municipal Airport-Steve Kurtz Field (21 nm SW)
KMZH - Moose Lake Carlton County Airport (28 nm SE)
KGPZ - Grand Rapids/Itasca County Airport-Gordon Newstrom Field (29 nm N)
KCOQ - Cloquet/Carlton County Airport (32 nm E)
 
Loc | Ops | Rwys | IFR | FBO | Links
Com | Nav | Svcs | Stats | Notes


 
Area around MN75 (Krezowski Seaplane Base)
 
Road maps at: MapQuest Bing Google
 
Aerial photo
WARNING: Photo may not be current or correct
Aerial photo of MN75 (Krezowski Seaplane Base)
Do you have a better or more recent aerial photo of Krezowski Seaplane Base that you would like to share? If so, please send us your photo.

 
Sectional chart

 
Airport distance calculator
Flying to Krezowski Seaplane Base? Find the distance to fly.

From to MN75

Sunrise and sunset
Times for 21-Nov-2017
 Local
(UTC-6)
 Zulu
(UTC)
Morning civil twilight06:5212:52
Sunrise07:2513:25
Sunset16:3322:33
Evening civil twilight17:0623:06

Current date and time
Zulu (UTC)  21-Nov-2017 07:45:18
Local (UTC-6)  21-Nov-2017 01:45:18
 
METAR
KHZX 
8nm S 
210735Z AUTO 30004KT 10SM OVC033 M01/M06 A2950 RMK AO2
TAF
KBRD 
41nm SW 
210529Z 2106/2206 29018G27KT P6SM BKN030 FM211500 32017G27KT P6SM SCT030 TEMPO 2118/2121 BKN030 FM212200 31015G23KT P6SM SCT030 FM220100 30009KT P6SM SCT030
KHIB 
42nm NE 
210529Z 2106/2206 29020G30KT P6SM VCSH SCT015 BKN020 TEMPO 2106/2107 30025G36KT FM210900 31017G28KT 6SM -SHSN SCT015 BKN025 FM211300 32016G27KT P6SM VCSH BKN025 FM212100 31012KT P6SM BKN030 FM220200 32010KT P6SM SCT030
KDLH 
45nm E 
210529Z 2106/2206 29023G32KT P6SM BKN030 TEMPO 2106/2108 29027G38KT FM211600 32019G28KT P6SM SCT025 FM212100 32015G27KT P6SM BKN030 FM220300 31010G17KT P6SM SCT030
NOTAMs
Click for the latest NOTAMs
NOTAMs are issued by the DoD/FAA and will open in a separate window not controlled by AirNav.

 

 
 

Would you like to see your business listed on this page?

 If your business provides an interesting product or service to pilots, flight crews, aircraft, or users of the Krezowski Seaplane Base, you should consider listing it here.  To start the listing process, click on the button below
 
Add a business
 

Other Pages about Krezowski Seaplane Base

Update a link
 
Copyright © AirNav, LLC. All rights reserved. Privacy Policy  Contact